Year,Month,Day,Hour,Minute,Value (Times are PST for temperature in C)
2008,07,26,00,00,15.20
2008,07,26,00,01,15.10
2008,07,26,00,02,15.10
2008,07,26,00,03,15.10
2008,07,26,00,04,15.10
2008,07,26,00,05,15.00
2008,07,26,00,06,15.00
2008,07,26,00,07,15.00
2008,07,26,00,08,15.00
2008,07,26,00,09,15.00
2008,07,26,00,10,15.00
2008,07,26,00,11,14.90
2008,07,26,00,12,14.90
2008,07,26,00,13,14.90
2008,07,26,00,14,14.90
2008,07,26,00,15,14.90
2008,07,26,00,16,14.90
2008,07,26,00,17,14.90
2008,07,26,00,18,14.80
2008,07,26,00,19,14.80
2008,07,26,00,20,14.80
2008,07,26,00,21,14.80
2008,07,26,00,22,14.80
2008,07,26,00,23,14.70
2008,07,26,00,24,14.70
2008,07,26,00,25,14.70
2008,07,26,00,26,14.70
2008,07,26,00,27,14.70
2008,07,26,00,28,14.70
2008,07,26,00,29,14.60
2008,07,26,00,30,14.60
2008,07,26,00,31,14.60
2008,07,26,00,32,14.60
2008,07,26,00,33,14.50
2008,07,26,00,34,14.50
2008,07,26,00,35,14.50
2008,07,26,00,36,14.50
2008,07,26,00,37,14.50
2008,07,26,00,38,14.50
2008,07,26,00,39,14.50
2008,07,26,00,40,14.50
2008,07,26,00,41,14.50
2008,07,26,00,42,14.40
2008,07,26,00,43,14.40
2008,07,26,00,44,14.40
2008,07,26,00,45,14.40
2008,07,26,00,46,14.40
2008,07,26,00,47,14.40
2008,07,26,00,48,14.50
2008,07,26,00,49,14.50
2008,07,26,00,50,14.50
2008,07,26,00,51,14.50
2008,07,26,00,52,14.50
2008,07,26,00,53,14.40
2008,07,26,00,54,14.40
2008,07,26,00,55,14.40
2008,07,26,00,56,14.40
2008,07,26,00,57,14.40
2008,07,26,00,58,14.40
2008,07,26,00,59,14.40
2008,07,26,01,00,14.40
2008,07,26,01,01,14.30
2008,07,26,01,02,14.30
2008,07,26,01,03,14.30
2008,07,26,01,04,14.30
2008,07,26,01,05,14.20
2008,07,26,01,06,14.20
2008,07,26,01,07,14.20
2008,07,26,01,08,14.20
2008,07,26,01,09,14.20
2008,07,26,01,10,14.20
2008,07,26,01,11,14.20
2008,07,26,01,12,14.20
2008,07,26,01,13,14.20
2008,07,26,01,14,14.20
2008,07,26,01,15,14.20
2008,07,26,01,16,14.10
2008,07,26,01,17,14.10
2008,07,26,01,18,14.10
2008,07,26,01,19,14.10
2008,07,26,01,20,14.10
2008,07,26,01,21,14.10
2008,07,26,01,22,14.10
2008,07,26,01,23,14.10
2008,07,26,01,24,14.10
2008,07,26,01,25,14.10
2008,07,26,01,26,14.10
2008,07,26,01,27,14.10
2008,07,26,01,28,14.20
2008,07,26,01,29,14.20
2008,07,26,01,30,14.20
2008,07,26,01,31,14.20
2008,07,26,01,32,14.20
2008,07,26,01,33,14.20
2008,07,26,01,34,14.20
2008,07,26,01,35,14.20
2008,07,26,01,36,14.20
2008,07,26,01,37,14.20
2008,07,26,01,38,14.20
2008,07,26,01,39,14.20
2008,07,26,01,40,14.20
2008,07,26,01,41,14.30
2008,07,26,01,42,14.30
2008,07,26,01,43,14.30
2008,07,26,01,44,14.30
2008,07,26,01,45,14.40
2008,07,26,01,46,14.40
2008,07,26,01,47,14.40
2008,07,26,01,48,14.40
2008,07,26,01,49,14.40
2008,07,26,01,50,14.40
2008,07,26,01,51,14.50
2008,07,26,01,52,14.50
2008,07,26,01,53,14.50
2008,07,26,01,54,14.50
2008,07,26,01,55,14.50
2008,07,26,01,56,14.50
2008,07,26,01,57,14.50
2008,07,26,01,58,14.50
2008,07,26,01,59,14.50
2008,07,26,02,00,14.50
2008,07,26,02,01,14.50
2008,07,26,02,02,14.50
2008,07,26,02,03,14.50
2008,07,26,02,04,14.50
2008,07,26,02,05,14.50
2008,07,26,02,06,14.50
2008,07,26,02,07,14.40
2008,07,26,02,08,14.40
2008,07,26,02,09,14.40
2008,07,26,02,10,14.40
2008,07,26,02,11,14.40
2008,07,26,02,12,14.40
2008,07,26,02,13,14.40
2008,07,26,02,14,14.40
2008,07,26,02,15,14.40
2008,07,26,02,16,14.40
2008,07,26,02,17,14.40
2008,07,26,02,18,14.40
2008,07,26,02,19,14.40
2008,07,26,02,20,14.40
2008,07,26,02,21,14.40
2008,07,26,02,22,14.40
2008,07,26,02,23,14.40
2008,07,26,02,24,14.40
2008,07,26,02,25,14.40
2008,07,26,02,26,14.40
2008,07,26,02,27,14.40
2008,07,26,02,28,14.40
2008,07,26,02,29,14.40
2008,07,26,02,30,14.40
2008,07,26,02,31,14.40
2008,07,26,02,32,14.40
2008,07,26,02,33,14.40
2008,07,26,02,34,14.40
2008,07,26,02,35,14.40
2008,07,26,02,36,14.30
2008,07,26,02,37,14.30
2008,07,26,02,38,14.30
2008,07,26,02,39,14.30
2008,07,26,02,40,14.20
2008,07,26,02,41,14.20
2008,07,26,02,42,14.20
2008,07,26,02,43,14.20
2008,07,26,02,44,14.20
2008,07,26,02,45,14.10
2008,07,26,02,46,14.10
2008,07,26,02,47,14.10
2008,07,26,02,48,14.00
2008,07,26,02,49,14.00
2008,07,26,02,50,13.90
2008,07,26,02,51,13.90
2008,07,26,02,52,13.90
2008,07,26,02,53,13.90
2008,07,26,02,54,13.90
2008,07,26,02,55,13.90
2008,07,26,02,56,13.90
2008,07,26,02,57,13.90
2008,07,26,02,58,13.80
2008,07,26,02,59,13.80
2008,07,26,03,00,13.80
2008,07,26,03,01,13.80
2008,07,26,03,02,13.80
2008,07,26,03,03,13.90
2008,07,26,03,04,13.90
2008,07,26,03,05,13.90
2008,07,26,03,06,13.90
2008,07,26,03,07,13.90
2008,07,26,03,08,13.90
2008,07,26,03,09,13.90
2008,07,26,03,10,13.90
2008,07,26,03,11,13.90
2008,07,26,03,12,13.90
2008,07,26,03,13,13.90
2008,07,26,03,14,13.90
2008,07,26,03,15,13.90
2008,07,26,03,16,13.90
2008,07,26,03,17,13.90
2008,07,26,03,18,13.90
2008,07,26,03,19,13.90
2008,07,26,03,20,13.90
2008,07,26,03,21,13.80
2008,07,26,03,22,13.80
2008,07,26,03,23,13.80
2008,07,26,03,24,13.80
2008,07,26,03,25,13.80
2008,07,26,03,26,13.80
2008,07,26,03,27,13.80
2008,07,26,03,28,13.70
2008,07,26,03,29,13.70
2008,07,26,03,30,13.70
2008,07,26,03,31,13.70
2008,07,26,03,32,13.70
2008,07,26,03,33,13.70
2008,07,26,03,34,13.70
2008,07,26,03,35,13.70
2008,07,26,03,36,13.70
2008,07,26,03,37,13.70
2008,07,26,03,38,13.70
2008,07,26,03,39,13.70
2008,07,26,03,40,13.70
2008,07,26,03,41,13.70
2008,07,26,03,42,13.70
2008,07,26,03,43,13.70
2008,07,26,03,44,13.70
2008,07,26,03,45,13.70
2008,07,26,03,46,13.80
2008,07,26,03,47,13.80
2008,07,26,03,48,13.80
2008,07,26,03,49,13.80
2008,07,26,03,50,13.80
2008,07,26,03,51,13.80
2008,07,26,03,52,13.90
2008,07,26,03,53,13.90
2008,07,26,03,54,13.90
2008,07,26,03,55,13.90
2008,07,26,03,56,13.90
2008,07,26,03,57,13.90
2008,07,26,03,58,13.90
2008,07,26,03,59,14.00
2008,07,26,04,00,14.00
2008,07,26,04,01,14.00
2008,07,26,04,02,14.00
2008,07,26,04,03,14.00
2008,07,26,04,04,14.00
2008,07,26,04,05,14.00
2008,07,26,04,06,14.00
2008,07,26,04,07,14.00
2008,07,26,04,08,14.00
2008,07,26,04,09,14.00
2008,07,26,04,10,13.90
2008,07,26,04,11,13.90
2008,07,26,04,12,13.90
2008,07,26,04,13,13.90
2008,07,26,04,14,13.90
2008,07,26,04,15,13.90
2008,07,26,04,16,13.80
2008,07,26,04,17,13.80
2008,07,26,04,18,13.80
2008,07,26,04,19,13.70
2008,07,26,04,20,13.70
2008,07,26,04,21,13.70
2008,07,26,04,22,13.70
2008,07,26,04,23,13.70
2008,07,26,04,24,13.60
2008,07,26,04,25,13.60
2008,07,26,04,26,13.60
2008,07,26,04,27,13.50
2008,07,26,04,28,13.50
2008,07,26,04,29,13.50
2008,07,26,04,30,13.40
2008,07,26,04,31,13.40
2008,07,26,04,32,13.40
2008,07,26,04,33,13.30
2008,07,26,04,34,13.30
2008,07,26,04,35,13.30
2008,07,26,04,36,13.30
2008,07,26,04,37,13.30
2008,07,26,04,38,13.20
2008,07,26,04,39,13.20
2008,07,26,04,40,13.20
2008,07,26,04,41,13.20
2008,07,26,04,42,13.20
2008,07,26,04,43,13.20
2008,07,26,04,44,13.10
2008,07,26,04,45,13.10
2008,07,26,04,46,13.10
2008,07,26,04,47,13.10
2008,07,26,04,48,13.10
2008,07,26,04,49,13.00
2008,07,26,04,50,13.00
2008,07,26,04,51,13.00
2008,07,26,04,52,13.00
2008,07,26,04,53,12.90
2008,07,26,04,54,12.90
2008,07,26,04,55,12.90
2008,07,26,04,56,12.90
2008,07,26,04,57,12.90
2008,07,26,04,58,12.90
2008,07,26,04,59,12.80
2008,07,26,05,00,12.80
2008,07,26,05,01,12.80
2008,07,26,05,02,12.80
2008,07,26,05,03,12.80
2008,07,26,05,04,12.80
2008,07,26,05,05,12.80
2008,07,26,05,06,12.80
2008,07,26,05,07,12.80
2008,07,26,05,08,12.80
2008,07,26,05,09,12.80
2008,07,26,05,10,12.80
2008,07,26,05,11,12.80
2008,07,26,05,12,12.80
2008,07,26,05,13,12.80
2008,07,26,05,14,12.80
2008,07,26,05,15,12.70
2008,07,26,05,16,12.70
2008,07,26,05,17,12.70
2008,07,26,05,18,12.60
2008,07,26,05,19,12.60
2008,07,26,05,20,12.60
2008,07,26,05,21,12.60
2008,07,26,05,22,12.50
2008,07,26,05,23,12.50
2008,07,26,05,24,12.50
2008,07,26,05,25,12.50
2008,07,26,05,26,12.50
2008,07,26,05,27,12.40
2008,07,26,05,28,12.40
2008,07,26,05,29,12.40
2008,07,26,05,30,12.40
2008,07,26,05,31,12.30
2008,07,26,05,32,12.30
2008,07,26,05,33,12.30
2008,07,26,05,34,12.30
2008,07,26,05,35,12.30
2008,07,26,05,36,12.30
2008,07,26,05,37,12.30
2008,07,26,05,38,12.30
2008,07,26,05,39,12.30
2008,07,26,05,40,12.30
2008,07,26,05,41,12.30
2008,07,26,05,42,12.30
2008,07,26,05,43,12.30
2008,07,26,05,44,12.30
2008,07,26,05,45,12.20
2008,07,26,05,46,12.20
2008,07,26,05,47,12.20
2008,07,26,05,48,12.20
2008,07,26,05,49,12.20
2008,07,26,05,50,12.20
2008,07,26,05,51,12.20
2008,07,26,05,52,12.10
2008,07,26,05,53,12.10
2008,07,26,05,54,12.10
2008,07,26,05,55,12.10
2008,07,26,05,56,12.00
2008,07,26,05,57,12.00
2008,07,26,05,58,12.00
2008,07,26,05,59,12.00
2008,07,26,06,00,12.00
2008,07,26,06,01,12.00
2008,07,26,06,02,12.00
2008,07,26,06,03,12.00
2008,07,26,06,04,11.90
2008,07,26,06,05,11.90
2008,07,26,06,06,11.90
2008,07,26,06,07,11.90
2008,07,26,06,08,11.90
2008,07,26,06,09,11.90
2008,07,26,06,10,11.90
2008,07,26,06,11,11.90
2008,07,26,06,12,11.90
2008,07,26,06,13,11.90
2008,07,26,06,14,11.90
2008,07,26,06,15,11.90
2008,07,26,06,16,11.90
2008,07,26,06,17,11.90
2008,07,26,06,18,11.90
2008,07,26,06,19,11.90
2008,07,26,06,20,11.90
2008,07,26,06,21,11.90
2008,07,26,06,22,11.90
2008,07,26,06,23,11.90
2008,07,26,06,24,11.90
2008,07,26,06,25,11.90
2008,07,26,06,26,11.90
2008,07,26,06,27,11.90
2008,07,26,06,28,12.00
2008,07,26,06,29,12.00
2008,07,26,06,30,12.00
2008,07,26,06,31,12.00
2008,07,26,06,32,12.10
2008,07,26,06,33,12.10
2008,07,26,06,34,12.20
2008,07,26,06,35,12.20
2008,07,26,06,36,12.30
2008,07,26,06,37,12.30
2008,07,26,06,38,12.30
2008,07,26,06,39,12.30
2008,07,26,06,40,12.30
2008,07,26,06,41,12.40
2008,07,26,06,42,12.40
2008,07,26,06,43,12.50
2008,07,26,06,44,12.50
2008,07,26,06,45,12.60
2008,07,26,06,46,12.60
2008,07,26,06,47,12.60
2008,07,26,06,48,12.70
2008,07,26,06,49,12.70
2008,07,26,06,50,12.70
2008,07,26,06,51,12.70
2008,07,26,06,52,12.70
2008,07,26,06,53,12.70
2008,07,26,06,54,12.70
2008,07,26,06,55,12.70
2008,07,26,06,56,12.70
2008,07,26,06,57,12.70
2008,07,26,06,58,12.80
2008,07,26,06,59,12.80
2008,07,26,07,00,12.80
2008,07,26,07,01,12.80
2008,07,26,07,02,12.80
2008,07,26,07,03,12.80
2008,07,26,07,04,12.90
2008,07,26,07,05,12.90
2008,07,26,07,06,13.00
2008,07,26,07,07,13.00
2008,07,26,07,08,13.10
2008,07,26,07,09,13.10
2008,07,26,07,10,13.10
2008,07,26,07,11,13.20
2008,07,26,07,12,13.20
2008,07,26,07,13,13.30
2008,07,26,07,14,13.30
2008,07,26,07,15,13.30
2008,07,26,07,16,13.40
2008,07,26,07,17,13.40
2008,07,26,07,18,13.50
2008,07,26,07,19,13.50
2008,07,26,07,20,13.60
2008,07,26,07,21,13.60
2008,07,26,07,22,13.60
2008,07,26,07,23,13.70
2008,07,26,07,24,13.70
2008,07,26,07,25,13.70
2008,07,26,07,26,13.80
2008,07,26,07,27,13.80
2008,07,26,07,28,13.90
2008,07,26,07,29,14.00
2008,07,26,07,30,14.00
2008,07,26,07,31,14.10
2008,07,26,07,32,14.10
2008,07,26,07,33,14.20
2008,07,26,07,34,14.20
2008,07,26,07,35,14.30
2008,07,26,07,36,14.30
2008,07,26,07,37,14.40
2008,07,26,07,38,14.40
2008,07,26,07,39,14.30
2008,07,26,07,40,14.30
2008,07,26,07,41,14.30
2008,07,26,07,42,14.30
2008,07,26,07,43,14.30
2008,07,26,07,44,14.30
2008,07,26,07,45,14.40
2008,07,26,07,46,14.40
2008,07,26,07,47,14.40
2008,07,26,07,48,14.30
2008,07,26,07,49,14.30
2008,07,26,07,50,14.30
2008,07,26,07,51,14.30
2008,07,26,07,52,14.30
2008,07,26,07,53,14.30
2008,07,26,07,54,14.30
2008,07,26,07,55,14.30
2008,07,26,07,56,14.30
2008,07,26,07,57,14.30
2008,07,26,07,58,14.30
2008,07,26,07,59,14.30
2008,07,26,08,00,14.30
2008,07,26,08,01,14.30
2008,07,26,08,02,14.30
2008,07,26,08,03,14.20
2008,07,26,08,04,14.20
2008,07,26,08,05,14.20
2008,07,26,08,06,14.20
2008,07,26,08,07,14.20
2008,07,26,08,08,14.20
2008,07,26,08,09,14.20
2008,07,26,08,10,14.20
2008,07,26,08,11,14.20
2008,07,26,08,12,14.20
2008,07,26,08,13,14.20
2008,07,26,08,14,14.20
2008,07,26,08,15,14.20
2008,07,26,08,16,14.20
2008,07,26,08,17,14.20
2008,07,26,08,18,14.20
2008,07,26,08,19,14.20
2008,07,26,08,20,14.20
2008,07,26,08,21,14.20
2008,07,26,08,22,14.20
2008,07,26,08,23,14.20
2008,07,26,08,24,14.20
2008,07,26,08,25,14.20
2008,07,26,08,26,14.20
2008,07,26,08,27,14.10
2008,07,26,08,28,14.10
2008,07,26,08,29,14.10
2008,07,26,08,30,14.10
2008,07,26,08,31,14.10
2008,07,26,08,32,14.00
2008,07,26,08,33,14.00
2008,07,26,08,34,14.00
2008,07,26,08,35,14.00
2008,07,26,08,36,14.00
2008,07,26,08,37,14.00
2008,07,26,08,38,14.00
2008,07,26,08,39,14.00
2008,07,26,08,40,14.00
2008,07,26,08,41,14.00
2008,07,26,08,42,14.00
2008,07,26,08,43,14.00
2008,07,26,08,44,14.00
2008,07,26,08,45,13.90
2008,07,26,08,46,13.90
2008,07,26,08,47,13.90
2008,07,26,08,48,13.90
2008,07,26,08,49,13.90
2008,07,26,08,50,13.90
2008,07,26,08,51,13.90
2008,07,26,08,52,13.90
2008,07,26,08,53,13.90
2008,07,26,08,54,13.90
2008,07,26,08,55,13.90
2008,07,26,08,56,13.80
2008,07,26,08,57,13.80
2008,07,26,08,58,13.80
2008,07,26,08,59,13.80
2008,07,26,09,00,13.80
2008,07,26,09,01,13.80
2008,07,26,09,02,13.80
2008,07,26,09,03,13.70
2008,07,26,09,04,13.70
2008,07,26,09,05,13.70
2008,07,26,09,06,13.70
2008,07,26,09,07,13.70
2008,07,26,09,08,13.70
2008,07,26,09,09,13.70
2008,07,26,09,10,13.70
2008,07,26,09,11,13.70
2008,07,26,09,12,13.70
2008,07,26,09,13,13.70
2008,07,26,09,14,13.70
2008,07,26,09,15,13.70
2008,07,26,09,16,13.70
2008,07,26,09,17,13.70
2008,07,26,09,18,13.80
2008,07,26,09,19,13.80
2008,07,26,09,20,13.80
2008,07,26,09,21,13.90
2008,07,26,09,22,13.90
2008,07,26,09,23,14.00
2008,07,26,09,24,14.00
2008,07,26,09,25,14.00
2008,07,26,09,26,14.00
2008,07,26,09,27,14.10
2008,07,26,09,28,14.20
2008,07,26,09,29,14.20
2008,07,26,09,30,14.30
2008,07,26,09,31,14.50
2008,07,26,09,32,14.50
2008,07,26,09,33,14.60
2008,07,26,09,34,14.80
2008,07,26,09,35,14.80
2008,07,26,09,36,14.90
2008,07,26,09,37,15.00
2008,07,26,09,38,15.10
2008,07,26,09,39,15.10
2008,07,26,09,40,15.20
2008,07,26,09,41,15.20
2008,07,26,09,42,15.20
2008,07,26,09,43,15.20
2008,07,26,09,44,15.20
2008,07,26,09,45,15.20
2008,07,26,09,46,15.20
2008,07,26,09,47,15.20
2008,07,26,09,48,15.20
2008,07,26,09,49,15.20
2008,07,26,09,50,15.20
2008,07,26,09,51,15.20
2008,07,26,09,52,15.20
2008,07,26,09,53,15.20
2008,07,26,09,54,15.20
2008,07,26,09,55,15.20
2008,07,26,09,56,15.20
2008,07,26,09,57,15.20
2008,07,26,09,58,15.20
2008,07,26,09,59,15.20
2008,07,26,10,00,15.20
2008,07,26,10,01,15.20
2008,07,26,10,02,15.20
2008,07,26,10,03,15.20
2008,07,26,10,04,15.20
2008,07,26,10,05,15.30
2008,07,26,10,06,15.30
2008,07,26,10,07,15.30
2008,07,26,10,08,15.10
2008,07,26,10,09,15.00
2008,07,26,10,10,14.80
2008,07,26,10,11,14.70
2008,07,26,10,12,14.60
2008,07,26,10,13,14.50
2008,07,26,10,14,14.40
2008,07,26,10,15,14.30
2008,07,26,10,16,14.20
2008,07,26,10,17,14.20
2008,07,26,10,18,14.10
2008,07,26,10,19,14.00
2008,07,26,10,20,13.90
2008,07,26,10,21,13.70
2008,07,26,10,22,13.70
2008,07,26,10,23,13.70
2008,07,26,10,24,13.60
2008,07,26,10,25,13.60
2008,07,26,10,26,13.60
2008,07,26,10,27,13.50
2008,07,26,10,28,13.50
2008,07,26,10,29,13.40
2008,07,26,10,30,13.40
2008,07,26,10,31,13.30
2008,07,26,10,32,13.30
2008,07,26,10,33,13.20
2008,07,26,10,34,13.20
2008,07,26,10,35,13.30
2008,07,26,10,36,13.30
2008,07,26,10,37,13.30
2008,07,26,10,38,13.30
2008,07,26,10,39,13.30
2008,07,26,10,40,13.30
2008,07,26,10,41,13.20
2008,07,26,10,42,13.20
2008,07,26,10,43,13.20
2008,07,26,10,44,13.10
2008,07,26,10,45,13.10
2008,07,26,10,46,13.10
2008,07,26,10,47,13.10
2008,07,26,10,48,13.10
2008,07,26,10,49,13.00
2008,07,26,10,50,13.00
2008,07,26,10,51,13.00
2008,07,26,10,52,13.00
2008,07,26,10,53,13.00
2008,07,26,10,54,13.00
2008,07,26,10,55,13.00
2008,07,26,10,56,13.00
2008,07,26,10,57,13.00
2008,07,26,10,58,13.00
2008,07,26,10,59,13.00
2008,07,26,11,00,13.00
2008,07,26,11,01,13.10
2008,07,26,11,02,13.10
2008,07,26,11,03,13.10
2008,07,26,11,04,13.10
2008,07,26,11,05,13.20
2008,07,26,11,06,13.20
2008,07,26,11,07,13.20
2008,07,26,11,08,13.20
2008,07,26,11,09,13.20
2008,07,26,11,10,13.20
2008,07,26,11,11,13.30
2008,07,26,11,12,13.30
2008,07,26,11,13,13.30
2008,07,26,11,14,13.30
2008,07,26,11,15,13.40
2008,07,26,11,16,13.40
2008,07,26,11,17,13.50
2008,07,26,11,18,13.50
2008,07,26,11,19,13.50
2008,07,26,11,20,13.60
2008,07,26,11,21,13.60
2008,07,26,11,22,13.70
2008,07,26,11,23,13.70
2008,07,26,11,24,13.70
2008,07,26,11,25,13.70
2008,07,26,11,26,13.70
2008,07,26,11,27,13.60
2008,07,26,11,28,13.60
2008,07,26,11,29,13.50
2008,07,26,11,30,13.40
2008,07,26,11,31,13.30
2008,07,26,11,32,13.30
2008,07,26,11,33,13.30
2008,07,26,11,34,13.30
2008,07,26,11,35,13.30
2008,07,26,11,36,13.30
2008,07,26,11,37,13.30
2008,07,26,11,38,13.30
2008,07,26,11,39,13.40
2008,07,26,11,40,13.40
2008,07,26,11,41,13.40
2008,07,26,11,42,13.40
2008,07,26,11,43,13.40
2008,07,26,11,44,13.40
2008,07,26,11,45,13.50
2008,07,26,11,46,13.50
2008,07,26,11,47,13.60
2008,07,26,11,48,13.60
2008,07,26,11,49,13.70
2008,07,26,11,50,13.70
2008,07,26,11,51,13.80
2008,07,26,11,52,13.90
2008,07,26,11,53,13.90
2008,07,26,11,54,14.00
2008,07,26,11,55,14.10
2008,07,26,11,56,14.10
2008,07,26,11,57,14.20
2008,07,26,11,58,14.30
2008,07,26,11,59,14.40
2008,07,26,12,00,14.40
2008,07,26,12,01,14.50
2008,07,26,12,02,14.50
2008,07,26,12,03,14.60
2008,07,26,12,04,14.60
2008,07,26,12,05,14.60
2008,07,26,12,06,14.60
2008,07,26,12,07,14.60
2008,07,26,12,08,14.50
2008,07,26,12,09,14.40
2008,07,26,12,10,14.30
2008,07,26,12,11,14.40
2008,07,26,12,12,14.40
2008,07,26,12,13,14.50
2008,07,26,12,14,14.60
2008,07,26,12,15,14.60
2008,07,26,12,16,14.70
2008,07,26,12,17,14.70
2008,07,26,12,18,14.80
2008,07,26,12,19,14.80
2008,07,26,12,20,14.90
2008,07,26,12,21,15.00
2008,07,26,12,22,15.00
2008,07,26,12,23,15.10
2008,07,26,12,24,15.20
2008,07,26,12,25,15.20
2008,07,26,12,26,15.20
2008,07,26,12,27,15.20
2008,07,26,12,28,15.20
2008,07,26,12,29,15.30
2008,07,26,12,30,15.30
2008,07,26,12,31,15.30
2008,07,26,12,32,15.30
2008,07,26,12,33,15.30
2008,07,26,12,34,15.30
2008,07,26,12,35,15.40
2008,07,26,12,36,15.50
2008,07,26,12,37,15.50
2008,07,26,12,38,15.60
2008,07,26,12,39,15.70
2008,07,26,12,40,15.70
2008,07,26,12,41,15.80
2008,07,26,12,42,15.80
2008,07,26,12,43,15.90
2008,07,26,12,44,15.90
2008,07,26,12,45,16.00
2008,07,26,12,46,16.10
2008,07,26,12,47,16.10
2008,07,26,12,48,15.90
2008,07,26,12,49,15.70
2008,07,26,12,50,15.60
2008,07,26,12,51,15.50
2008,07,26,12,52,15.40
2008,07,26,12,53,15.30
2008,07,26,12,54,15.30
2008,07,26,12,55,15.30
2008,07,26,12,56,15.30
2008,07,26,12,57,15.40
2008,07,26,12,58,15.50
2008,07,26,12,59,15.60
2008,07,26,13,00,15.70
2008,07,26,13,01,15.90
2008,07,26,13,02,16.00
2008,07,26,13,03,16.20
2008,07,26,13,04,16.40
2008,07,26,13,05,16.50
2008,07,26,13,06,16.70
2008,07,26,13,07,16.70
2008,07,26,13,08,16.90
2008,07,26,13,09,17.00
2008,07,26,13,10,17.10
2008,07,26,13,11,17.30
2008,07,26,13,12,17.40
2008,07,26,13,13,17.60
2008,07,26,13,14,17.70
2008,07,26,13,15,17.80
2008,07,26,13,16,17.90
2008,07,26,13,17,18.00
2008,07,26,13,18,18.10
2008,07,26,13,19,18.30
2008,07,26,13,20,18.40
2008,07,26,13,21,18.50
2008,07,26,13,22,18.50
2008,07,26,13,23,18.60
2008,07,26,13,24,18.60
2008,07,26,13,25,18.70
2008,07,26,13,26,18.90
2008,07,26,13,27,19.00
2008,07,26,13,28,19.10
2008,07,26,13,29,19.10
2008,07,26,13,30,19.20
2008,07,26,13,31,19.20
2008,07,26,13,32,19.10
2008,07,26,13,33,19.00
2008,07,26,13,34,18.90
2008,07,26,13,35,18.90
2008,07,26,13,36,18.80
2008,07,26,13,37,18.90
2008,07,26,13,38,18.90
2008,07,26,13,39,18.90
2008,07,26,13,40,18.90
2008,07,26,13,41,18.90
2008,07,26,13,42,19.00
2008,07,26,13,43,19.10
2008,07,26,13,44,19.10
2008,07,26,13,45,19.30
2008,07,26,13,46,19.40
2008,07,26,13,47,19.50
2008,07,26,13,48,19.50
2008,07,26,13,49,19.50
2008,07,26,13,50,19.60
2008,07,26,13,51,19.60
2008,07,26,13,52,19.60
2008,07,26,13,53,19.80
2008,07,26,13,54,19.90
2008,07,26,13,55,19.90
2008,07,26,13,56,20.00
2008,07,26,13,57,20.10
2008,07,26,13,58,20.00
2008,07,26,13,59,19.90
2008,07,26,14,00,19.80
2008,07,26,14,01,19.80
2008,07,26,14,02,19.80
2008,07,26,14,03,19.80
2008,07,26,14,04,19.80
2008,07,26,14,05,19.90
2008,07,26,14,06,19.90
2008,07,26,14,07,19.90
2008,07,26,14,08,20.00
2008,07,26,14,09,20.10
2008,07,26,14,10,20.20
2008,07,26,14,11,20.20
2008,07,26,14,12,20.10
2008,07,26,14,13,20.10
2008,07,26,14,14,20.10
2008,07,26,14,15,20.20
2008,07,26,14,16,20.20
2008,07,26,14,17,20.30
2008,07,26,14,18,20.30
2008,07,26,14,19,20.40
2008,07,26,14,20,20.40
2008,07,26,14,21,20.40
2008,07,26,14,22,20.30
2008,07,26,14,23,20.20
2008,07,26,14,24,20.20
2008,07,26,14,25,20.20
2008,07,26,14,26,20.20
2008,07,26,14,27,20.20
2008,07,26,14,28,20.30
2008,07,26,14,29,20.30
2008,07,26,14,30,20.20
2008,07,26,14,31,20.20
2008,07,26,14,32,20.30
2008,07,26,14,33,20.50
2008,07,26,14,34,20.50
2008,07,26,14,35,20.60
2008,07,26,14,36,20.70
2008,07,26,14,37,20.70
2008,07,26,14,38,20.70
2008,07,26,14,39,20.60
2008,07,26,14,40,20.50
2008,07,26,14,41,20.40
2008,07,26,14,42,20.40
2008,07,26,14,43,20.20
2008,07,26,14,44,20.20
2008,07,26,14,45,20.20
2008,07,26,14,46,20.20
2008,07,26,14,47,20.30
2008,07,26,14,48,20.40
2008,07,26,14,49,20.50
2008,07,26,14,50,20.60
2008,07,26,14,51,20.70
2008,07,26,14,52,20.80
2008,07,26,14,53,20.80
2008,07,26,14,54,20.90
2008,07,26,14,55,21.00
2008,07,26,14,56,21.00
2008,07,26,14,57,21.00
2008,07,26,14,58,21.00
2008,07,26,14,59,21.00
2008,07,26,15,00,21.00
2008,07,26,15,01,21.00
2008,07,26,15,02,21.00
2008,07,26,15,03,21.00
2008,07,26,15,04,21.00
2008,07,26,15,05,21.10
2008,07,26,15,06,21.10
2008,07,26,15,07,21.10
2008,07,26,15,08,21.00
2008,07,26,15,09,21.00
2008,07,26,15,10,21.00
2008,07,26,15,11,21.00
2008,07,26,15,12,21.00
2008,07,26,15,13,21.00
2008,07,26,15,14,21.00
2008,07,26,15,15,21.10
2008,07,26,15,16,21.00
2008,07,26,15,17,21.00
2008,07,26,15,18,21.00
2008,07,26,15,19,21.00
2008,07,26,15,20,21.00
2008,07,26,15,21,21.00
2008,07,26,15,22,21.00
2008,07,26,15,23,20.90
2008,07,26,15,24,20.90
2008,07,26,15,25,20.90
2008,07,26,15,26,20.90
2008,07,26,15,27,20.80
2008,07,26,15,28,20.80
2008,07,26,15,29,20.80
2008,07,26,15,30,20.70
2008,07,26,15,31,20.70
2008,07,26,15,32,20.80
2008,07,26,15,33,20.80
2008,07,26,15,34,20.80
2008,07,26,15,35,20.80
2008,07,26,15,36,20.90
2008,07,26,15,37,20.80
2008,07,26,15,38,20.80
2008,07,26,15,39,20.80
2008,07,26,15,40,20.80
2008,07,26,15,41,20.70
2008,07,26,15,42,20.70
2008,07,26,15,43,20.70
2008,07,26,15,44,20.60
2008,07,26,15,45,20.60
2008,07,26,15,46,20.50
2008,07,26,15,47,20.40
2008,07,26,15,48,20.30
2008,07,26,15,49,20.30
2008,07,26,15,50,20.20
2008,07,26,15,51,20.30
2008,07,26,15,52,20.30
2008,07,26,15,53,20.30
2008,07,26,15,54,20.40
2008,07,26,15,55,20.40
2008,07,26,15,56,20.40
2008,07,26,15,57,20.40
2008,07,26,15,58,20.40
2008,07,26,15,59,20.30
2008,07,26,16,00,20.20
2008,07,26,16,01,20.10
2008,07,26,16,02,20.00
2008,07,26,16,03,19.80
2008,07,26,16,04,19.70
2008,07,26,16,05,19.60
2008,07,26,16,06,19.60
2008,07,26,16,07,19.50
2008,07,26,16,08,19.40
2008,07,26,16,09,19.40
2008,07,26,16,10,19.30
2008,07,26,16,11,19.20
2008,07,26,16,12,19.30
2008,07,26,16,13,19.30
2008,07,26,16,14,19.40
2008,07,26,16,15,19.40
2008,07,26,16,16,19.50
2008,07,26,16,17,19.60
2008,07,26,16,18,19.70
2008,07,26,16,19,19.80
2008,07,26,16,20,19.90
2008,07,26,16,21,20.00
2008,07,26,16,22,20.10
2008,07,26,16,23,20.20
2008,07,26,16,24,20.20
2008,07,26,16,25,20.30
2008,07,26,16,26,20.40
2008,07,26,16,27,20.40
2008,07,26,16,28,20.30
2008,07,26,16,29,20.30
2008,07,26,16,30,20.20
2008,07,26,16,31,20.10
2008,07,26,16,32,20.00
2008,07,26,16,33,19.90
2008,07,26,16,34,19.90
2008,07,26,16,35,19.90
2008,07,26,16,36,19.80
2008,07,26,16,37,19.80
2008,07,26,16,38,19.90
2008,07,26,16,39,19.90
2008,07,26,16,40,19.80
2008,07,26,16,41,19.80
2008,07,26,16,42,19.80
2008,07,26,16,43,19.70
2008,07,26,16,44,19.60
2008,07,26,16,45,19.60
2008,07,26,16,46,19.60
2008,07,26,16,47,19.50
2008,07,26,16,48,19.40
2008,07,26,16,49,19.30
2008,07,26,16,50,19.30
2008,07,26,16,51,19.20
2008,07,26,16,52,19.10
2008,07,26,16,53,19.10
2008,07,26,16,54,19.00
2008,07,26,16,55,18.90
2008,07,26,16,56,18.90
2008,07,26,16,57,19.00
2008,07,26,16,58,19.10
2008,07,26,16,59,19.20
2008,07,26,17,00,19.40
2008,07,26,17,01,19.50
2008,07,26,17,02,19.60
2008,07,26,17,03,19.70
2008,07,26,17,04,19.80
2008,07,26,17,05,19.90
2008,07,26,17,06,20.00
2008,07,26,17,07,20.10
2008,07,26,17,08,20.20
2008,07,26,17,09,20.30
2008,07,26,17,10,20.30
2008,07,26,17,11,20.30
2008,07,26,17,12,20.40
2008,07,26,17,13,20.40
2008,07,26,17,14,20.40
2008,07,26,17,15,20.40
2008,07,26,17,16,20.50
2008,07,26,17,17,20.50
2008,07,26,17,18,20.50
2008,07,26,17,19,20.60